TimeCST,TemperatureF,Dew PointF,Humidity,Sea Level PressureIn,VisibilityMPH,Wind Direction,Wind SpeedMPH,Gust SpeedMPH,PrecipitationIn,Events,Conditions,WindDirDegrees,DateUTC
12:54 AM,33.1,27.0,78,30.28,10.0,WNW,9.2,-,N/A,,Clear,300,2013-11-10 06:54:00
1:54 AM,30.9,26.1,82,30.30,10.0,WNW,9.2,-,N/A,,Clear,300,2013-11-10 07:54:00
2:54 AM,30.9,25.0,79,30.31,10.0,NW,8.1,-,N/A,,Clear,310,2013-11-10 08:54:00
3:54 AM,28.9,25.0,85,30.32,10.0,WNW,4.6,-,N/A,,Clear,300,2013-11-10 09:54:00
4:54 AM,27.0,23.0,85,30.35,10.0,West,4.6,-,N/A,,Clear,260,2013-11-10 10:54:00
5:54 AM,24.1,21.9,91,30.37,10.0,West,5.8,-,N/A,,Scattered Clouds,260,2013-11-10 11:54:00
6:01 AM,24.8,23.0,93,30.34,10.0,West,4.6,-,N/A,,Mostly Cloudy,260,2013-11-10 12:01:00
6:26 AM,26.6,24.8,93,30.36,10.0,West,5.8,-,N/A,,Scattered Clouds,270,2013-11-10 12:26:00
6:42 AM,24.8,23.0,93,30.36,10.0,West,5.8,-,N/A,,Mostly Cloudy,260,2013-11-10 12:42:00
6:54 AM,25.0,23.0,92,30.39,10.0,WSW,6.9,-,N/A,,Mostly Cloudy,250,2013-11-10 12:54:00
7:54 AM,28.0,25.0,88,30.41,10.0,WSW,6.9,-,N/A,,Overcast,250,2013-11-10 13:54:00
8:14 AM,30.2,26.6,86,30.38,10.0,West,5.8,-,N/A,,Scattered Clouds,260,2013-11-10 14:14:00
8:54 AM,34.0,27.0,75,30.41,10.0,West,3.5,-,N/A,,Clear,280,2013-11-10 14:54:00
9:54 AM,39.0,27.0,62,30.40,10.0,NNW,3.5,-,N/A,,Clear,340,2013-11-10 15:54:00
10:54 AM,39.9,28.0,63,30.40,10.0,NNW,3.5,-,N/A,,Clear,330,2013-11-10 16:54:00
11:54 AM,43.0,28.9,58,30.37,10.0,WSW,6.9,-,N/A,,Clear,240,2013-11-10 17:54:00
12:54 PM,44.1,30.0,58,30.34,10.0,SW,6.9,-,N/A,,Clear,220,2013-11-10 18:54:00
1:54 PM,43.0,28.9,58,30.33,10.0,SW,10.4,-,N/A,,Overcast,220,2013-11-10 19:54:00
2:54 PM,42.1,28.9,60,30.32,10.0,SW,12.7,-,N/A,,Overcast,220,2013-11-10 20:54:00
3:54 PM,42.1,28.9,60,30.31,10.0,SW,9.2,-,N/A,,Overcast,230,2013-11-10 21:54:00
4:54 PM,41.0,28.9,62,30.29,10.0,SSW,4.6,-,N/A,,Overcast,210,2013-11-10 22:54:00
5:54 PM,39.9,30.0,68,30.27,10.0,South,4.6,-,N/A,,Overcast,190,2013-11-10 23:54:00
6:54 PM,37.9,28.9,70,30.25,10.0,South,8.1,-,N/A,,Overcast,170,2013-11-11 00:54:00
7:54 PM,39.0,28.9,67,30.23,10.0,South,5.8,-,N/A,,Overcast,170,2013-11-11 01:54:00
8:54 PM,39.9,30.0,68,30.20,10.0,South,6.9,-,N/A,,Overcast,190,2013-11-11 02:54:00
9:54 PM,41.0,30.0,65,30.19,10.0,South,6.9,-,N/A,,Overcast,190,2013-11-11 03:54:00
10:54 PM,43.0,30.9,62,30.18,10.0,SSW,5.8,-,N/A,,Overcast,210,2013-11-11 04:54:00
11:54 PM,42.1,30.9,65,30.14,10.0,SSW,8.1,-,N/A,,Mostly Cloudy,200,2013-11-11 05:54:00